STARLINK-3688, 52310

Orbit data source: Space-Track

STARLINK-3688, 52310 is a payload satellite owned by SpaceX/Seattle (US) in LEO that was launched on Thu, 21 Apr 2022 UTC via an FALCON 9 launch vehicle from the Air Force Eastern Test Range (AFETR). Payload-class satellites include a variety of spacecraft equipped with specific instruments for various scientific and technological missions. These include communications satellites like Starlink; space stations such as the ISS; scientific satellites like the Hubble; Earth observation satellites from companies like Planet Labs, Umbra, and HawkEye 360; GPS; miniature CubeSats for education and research; and military/defense satellites.

Loading next visibility...
Identifier
52310, 2022-041BB
Orbit
LEO
Country
Flag of USUS
Related business
Manufacturer
SpaceX/Seattle
Mission
Operational Commercial Communications
Bus & Motor
STARLINK, Unknown motor
Mass
297 kg wet, ~275 kg dry
Launch date (UTC)
2022-04-21 (4 years ago)
Launch vehicle
FALCON 9
Launch site
Air Force Eastern Test Range (AFETR)
Object type
Payload
Rocket body
Debris
Shape & HBR
Box + 1 Pan, 10.1 m
Radar Cross Section
11.087 m², Large (>1 m²)

Expand to show TLE details & history
Last TLE update: 16 hours ago

TLE from 16 hours ago
0 STARLINK-3688
1 52310U 22041BB  26175.25002315  .00112557  00000-0  48228-2 0  9996
2 52310  53.1600 330.3256 0000654  85.5369 298.2368 15.21889837  5657
Epoch: 2026-06-24T06:00Z
TLE epoch observation values (Epoch: 2026-06-24T06:00:02.000Z)
Latitude
18.85244°
Longitude
-17.35473°
Altitude
500.308 km
Speed
7.617 km/s
True Right ascension
23h 00m 15s
True Declination
18° 44' 37"
Sunlit
Object was in daylight at epoch
Visualization orbit readout
Latitude
Unknown
Longitude
Unknown
Altitude
Unknown
Speed
Unknown
Apparent Right ascension
Unknown
Apparent Declination
Unknown
Sunlit
N/A
Visualization observer readout
Local Sidereal Time
08:57:18
Azimuth
Unknown
Elevation
Unknown
Doppler factor
Unknown
Orbital elements
Apogee altitude
500.846 km
Perigee altitude
499.946 km
Semi-major axis
6,878.533 km
Eccentricity
0.00007
Inclination
53.16°
RAAN
330.3256°
Arg. of periapsis
85.5369°
True anomaly
298.2302°
Mean anomaly
298.2368°
Eccentric anomaly
298.2335°
Mean motion
3.80452 °/min
Orbital period
94.62 mins
BSTAR
0.0048228
Loading maneuver chart data...
Computing Atmospheric mass density...

Documentation

Showing up to 5 results
|